Regional Weather Roundup
Issued by NWS

Home | Current Version | Previous Version | Text Only | Print | Product List | Glossary Off
Versions: 1 2 3 4 5 6 7 8 9 10 11 12 13 14 15 16 17 18 19 20 21 22 23 24 25 26 27

000
ASUS45 KBOI 262310
RWRID

IDAHO REGIONAL WEATHER ROUNDUP
NATIONAL WEATHER SERVICE BOISE ID
500 PM MDT THU MAY 26 2016

NOTE: "FAIR" INDICATES FEW OR NO CLOUDS BELOW 12000 FEET
WITH NO SIGNIFICANT WEATHER AND/OR OBSTRUCTIONS TO VISIBILITY

IDZ012-014-270000-
SOUTHWEST IDAHO


CITY           SKY/WX    TMP DP  RH WIND       PRES   REMARKS
BOISE          PTSUNNY   73  35  25 NW13      29.94F
CALDWELL       MOSUNNY   73  39  29 SW7G16    29.93F
MOUNTAIN HOME  MOSUNNY   77  45  31 W10G28    29.94F
$$

IDZ016-017-270000-
SOUTHCENTRAL IDAHO


CITY           SKY/WX    TMP DP  RH WIND       PRES   REMARKS
BURLEY         SUNNY     66  41  40 SW13      29.95F
JEROME         MOSUNNY   71  32  23 SW10G23   29.96F
TWIN FALLS     MOSUNNY   70  35  27 NW12      29.96F
$$

IDZ019>023-270000-
SOUTHEAST IDAHO


CITY           SKY/WX    TMP DP  RH WIND       PRES   REMARKS
IDAHO FALLS    MOSUNNY   67  39  35 VRB7      29.95F
POCATELLO      MOSUNNY   69  32  25 W7G17     29.96F
REXBURG        SUNNY     65  28  24 SW7       29.95F
$$

IDZ006-010-011-018-031-032-270000-
CENTRAL IDAHO MOUNTAINS


CITY           SKY/WX    TMP DP  RH WIND       PRES   REMARKS
MCCALL         CLOUDY    63  33  32 W12G17    29.99F
HAILEY         PTSUNNY   63  36  36 S5        30.01F
STANLEY          N/A     61  28  28 CALM      30.01F
SALMON         CLOUDY    70  39  32 N5        29.89F
CHALLIS        MOSUNNY   67  31  26 N3        29.92F
$$

IDZ002-004-006-007-026-270000-
NORTHERN IDAHO


CITY           SKY/WX    TMP DP  RH WIND       PRES   REMARKS
LEWISTON       CLOUDY    71  44  37 NW14      29.96F
LOWELL           N/A     73  47  39 SE6       29.91S
COEUR D`ALENE  CLOUDY    63  46  55 SW8       29.96F
MULLAN PASS    CLOUDY    45  41  86 VRB6      30.03F
$$




USA.gov is the U.S. government's official web portal to all federal, state and local government web resources and services.